Home > Weather > Kraków > Past weeks

Flag for Poland Past Weather in Kraków, Poland — Yesterday and Last 2 Weeks

Now
81 °F

Passing clouds.


Feels Like: 82 °F
Forecast: 60 / 88 °F
Wind: 9 mph from West

Location: Krakow Airport

Current Time: Jul 1, 2016 at 1:50:07 PM

Latest Report: Jul 1, 2016 at 1:00 PM


Visibility: N/A

Pressure: 30.04 "Hg

Humidity: 58%

Dew Point: 64 °F

Location of KrakówLocation

Past Weather in Kraków — Graph

°F

Kraków Temperature Yesterday

Maximum temperature yesterday: 88 °F (at 4:00 PM)
Minimum temperature yesterday: 59 °F (at 4:00 AM)
Average temperature yesterday: 74 °F

High & Low Weather Summary for the Past Weeks

 TemperatureHumidityPressure
High93 °F (Jun 25, 3:30 PM)100% (Jun 29, 3:30 AM)30.30 "Hg (Jun 29, 3:30 AM)
Low52 °F (Jun 18, 3:30 AM)30% (Jun 18, 4:00 PM)29.53 "Hg (Jun 17, 5:00 AM)
Average70 °F69%30.03 "Hg
* Reported Jun 16 12:00 PM — Jul 1 12:30 PM, Kraków, Weather by CustomWeather, © 2016

Note: Actual official high and low records may vary slightly from our data, if they occured in-between our weather recording intervals... More about our weather records

Advertising

Kraków Weather History for the Previous 24 Hours

Scroll right to see more
 ConditionsComfort  
Time TempWeatherWind HumidityBarometerVisibility
12:30 PM
Fri, Jul 1
81 °FPassing clouds.3 mph54%30.04 "HgN/A
12:00 PM79 °FPassing clouds.6 mph54%30.07 "HgN/A
11:30 AM77 °FPassing clouds.3 mph61%30.07 "HgN/A
11:00 AM75 °FPassing clouds.6 mph61%30.07 "HgN/A
10:30 AM75 °FSunny.3 mph65%30.07 "Hg10 mi
10:00 AM72 °FSunny.2 mph73%30.07 "Hg10 mi
9:30 AM72 °FPassing clouds.3 mph78%30.07 "HgN/A
9:00 AM70 °FSunny.1 mph78%30.07 "Hg10 mi
8:30 AM70 °FSunny.1 mph83%30.07 "Hg10 mi
8:00 AM68 °FSunny.2 mph83%30.07 "Hg10 mi
7:30 AM68 °FSunny.3 mph83%30.04 "Hg10 mi
7:00 AM68 °FSunny.1 mph83%30.04 "Hg10 mi
6:30 AM66 °FSunny.2 mph88%30.04 "Hg10 mi
6:00 AM66 °FSunny.1 mph83%30.04 "Hg10 mi
5:30 AM63 °FClear.3 mph88%30.04 "Hg10 mi
5:00 AM63 °FClear.5 mph94%30.01 "Hg10 mi
4:30 AM64 °FClear.1 mph88%30.01 "Hg10 mi
4:00 AM64 °FPassing clouds.5 mph88%30.01 "HgN/A
3:30 AM66 °FPassing clouds.5 mph83%30.04 "HgN/A
3:00 AM66 °FPassing clouds.2 mph88%30.04 "HgN/A
2:30 AM66 °FPassing clouds.2 mph88%30.01 "HgN/A
2:00 AM64 °FPassing clouds.3 mph88%30.01 "HgN/A
1:30 AM66 °FPassing clouds.5 mph83%30.01 "HgN/A
1:00 AM66 °FPassing clouds.5 mph83%30.01 "HgN/A
12:30 AM64 °FPassing clouds.5 mph88%30.04 "HgN/A
12:00 AM66 °FPassing clouds.6 mph83%30.04 "HgN/A
11:30 PM
Thu, Jun 30
66 °FClear.1 mph83%30.01 "Hg10 mi
11:00 PM68 °FPassing clouds.2 mph78%30.01 "HgN/A
10:30 PM68 °FClear.2 mph78%30.01 "Hg10 mi
10:00 PM70 °FPassing clouds.2 mph73%30.01 "HgN/A
9:30 PM70 °FPassing clouds.9 mph73%30.01 "HgN/A
9:00 PM72 °FThundershowers. Scattered clouds.17 mph69%29.98 "HgN/A
8:30 PM73 °FPartly sunny.20 mph65%29.98 "HgN/A
8:00 PM79 °FScattered clouds.6 mph54%29.92 "HgN/A
7:30 PM81 °FSprinkles. Scattered clouds.10 mph48%29.92 "HgN/A
7:00 PM84 °FPassing clouds.7 mph45%29.92 "HgN/A
6:30 PM84 °FPassing clouds.6 mph43%29.92 "HgN/A
6:00 PM86 °FPassing clouds.8 mph40%29.92 "HgN/A
5:30 PM86 °FPassing clouds.5 mph40%29.92 "HgN/A
5:00 PM86 °FPassing clouds.6 mph40%29.92 "HgN/A
4:30 PM86 °FPassing clouds.7 mph40%29.95 "HgN/A
4:00 PM88 °FPassing clouds.3 mph35%29.95 "HgN/A
3:30 PM86 °FPassing clouds.5 mph38%29.95 "HgN/A
3:00 PM86 °FPassing clouds.6 mph38%29.95 "HgN/A
2:30 PM86 °FPassing clouds.6 mph38%29.95 "HgN/A
2:00 PM86 °FPassing clouds.5 mph38%29.98 "HgN/A
1:30 PM84 °FPassing clouds.7 mph40%29.98 "HgN/A
1:00 PM84 °FPassing clouds.6 mph40%29.98 "HgN/A
Weather by CustomWeather, © 2016

See weather overviewHow to use our weather pages